This is the latest recevied weather packets stored in our database for station/object WK7G. If no packets are shown the sender has not sent any weather packets the latest 1 day(s).
| Time | Temp. | Humidity | Pressure | Rain* | Wind** | Luminosity | Snow |
|---|---|---|---|---|---|---|---|
| 1778037394 | 4.44° C | 46% | 1007.1 hPa | 0 mm | 3.58 m/s, 323° | 0 W/m² | - |
| 1778037091 | 5° C | 45% | 1007.5 hPa | 0 mm | 3.58 m/s, 341° | 0 W/m² | - |
| 1778036790 | 5° C | 44% | 1006.8 hPa | 0 mm | 4.47 m/s, 34° | 0 W/m² | - |
| 1778036486 | 5° C | 45% | 1007 hPa | 0 mm | 3.13 m/s, 313° | 0 W/m² | - |
| 1778036183 | 5° C | 45% | 1006.7 hPa | 0 mm | 4.02 m/s, 342° | 0 W/m² | - |
| 1778035879 | 5° C | 45% | 1006.5 hPa | 0 mm | 4.47 m/s, 20° | 0 W/m² | - |
| 1778035577 | 5° C | 45% | 1006.3 hPa | 0 mm | 6.71 m/s, 9° | 0 W/m² | - |
| 1778035273 | 5° C | 46% | 1006.3 hPa | 0 mm | 5.81 m/s, 65° | 0 W/m² | - |
| 1778034969 | 5.56° C | 46% | 1006.1 hPa | 0 mm | 5.81 m/s, 23° | 0 W/m² | - |
| 1778034667 | 5.56° C | 44% | 1006.2 hPa | 0 mm | 3.13 m/s, 8° | 1 W/m² | - |
| 1778034364 | 6.11° C | 44% | 1005.8 hPa | 0 mm | 4.02 m/s, 347° | 3 W/m² | - |
| 1778034061 | 6.11° C | 44% | 1005.7 hPa | 0 mm | 1.79 m/s, 143° | 6 W/m² | - |
| 1778033759 | 6.67° C | 43% | 1005.6 hPa | 0 mm | 4.02 m/s, 331° | 12 W/m² | - |
| 1778033456 | 6.67° C | 43% | 1005.2 hPa | 0 mm | 5.36 m/s, 308° | 20 W/m² | - |
| 1778033153 | 7.78° C | 41% | 1004.9 hPa | 0 mm | 4.02 m/s, 293° | 23 W/m² | - |
| 1778032850 | 7.78° C | 41% | 1005 hPa | 0 mm | 4.02 m/s, 293° | 23 W/m² | - |
| 1778032548 | 7.78° C | 40% | 1004.8 hPa | 0 mm | 4.02 m/s, 334° | 27 W/m² | - |
| 1778032244 | 7.78° C | 40% | 1005 hPa | 0 mm | 4.02 m/s, 341° | 29 W/m² | - |
| 1778031942 | 8.33° C | 40% | 1004.9 hPa | 0 mm | 3.13 m/s, 5° | 29 W/m² | - |
| 1778031637 | 8.33° C | 39% | 1004.5 hPa | 0 mm | 4.92 m/s, 303° | 33 W/m² | - |
| 1778031336 | 8.89° C | 40% | 1004.8 hPa | 0 mm | 3.13 m/s, 310° | 45 W/m² | - |
| 1778031032 | 8.89° C | 40% | 1004.5 hPa | 0 mm | 4.92 m/s, 338° | 54 W/m² | - |
| 1778030728 | 8.89° C | 40% | 1004.5 hPa | 0 mm | 3.58 m/s, 25° | 85 W/m² | - |
| 1778030426 | 8.89° C | 40% | 1004.3 hPa | 0 mm | 2.68 m/s, 285° | 73 W/m² | - |
| 1778030128 | 8.89° C | 41% | 1004.4 hPa | 0 mm | 3.58 m/s, 310° | 121 W/m² | - |
* Rain latest hour (hover to see other rain measurements)
** Current wind speed in m/s (hover to see current wind gust speed)